Wind_Speed
29 26 22 22 22 20 18 17 15 13 10 10 10 10 10 10 9 8 7 6 6 7 8 9 8 9 10 10 10 10 10 10 11 11 11 11 13 14 15 15 15 16 17
27 27 23 22 21 19 16 13 11 12 10 12 12 11 11 12 11 10 9 7 6 6 8 9 11 11 11 12 11 10 10 11 11 11 10 12 13 14 15 14 14 15 16
25 25 23 21 17 14 12 10 10 12 13 11 11 11 12 11 10 10 9 7 6 6 6 9 11 11 11 12 13 11 12 12 11 10 12 13 13 15 15 14 14 14 14
23 23 22 20 16 13 13 12 12 12 11 10 9 10 9 8 8 9 9 9 8 8 8 9 12 13 13 14 13 13 12 11 10 10 12 13 13 15 14 14 13 13 14
23 22 21 17 15 14 14 13 11 10 9 9 9 8 8 8 9 10 11 10 9 9 9 10 12 13 14 15 12 11 9 10 9 10 12 13 13 14 14 13 13 12 12
22 21 19 16 15 14 13 12 11 11 11 10 10 9 9 8 9 9 9 9 8 8 9 12 14 15 16 16 14 12 10 9 10 11 12 12 13 14 13 12 12 12 12
21 21 19 17 15 14 14 12 12 11 11 10 9 9 9 9 9 10 10 10 9 9 10 14 17 19 18 17 15 14 8 9 11 11 12 12 12 13 13 12 12 12 11
19 20 18 16 15 15 13 12 12 11 10 10 10 10 10 11 13 12 12 11 11 11 14 17 19 21 19 17 16 12 10 10 11 11 12 12 12 12 12 11 11 11 12
20 17 17 15 15 14 13 11 11 11 10 11 10 10 13 15 16 15 14 14 14 14 15 16 19 19 18 17 15 11 9 10 11 12 13 12 11 12 11 11 11 11 12
19 16 15 15 15 13 12 10 11 11 11 11 10 11 16 18 20 17 17 17 17 16 17 18 18 18 17 14 13 9 6 9 12 13 14 12 11 11 10 10 11 12 13
21 17 15 15 15 13 11 10 10 11 13 11 11 12 16 19 19 17 18 18 19 20 19 18 18 17 17 15 12 9 8 9 13 14 14 12 11 11 10 11 11 11 12
21 18 16 15 14 12 11 10 10 12 12 12 12 14 16 17 17 17 16 19 19 19 18 18 18 16 17 11 8 9 10 11 13 15 13 13 12 11 11 11 12 11 11
20 18 16 15 14 12 11 10 12 12 11 11 10 13 15 15 17 18 17 18 16 17 17 15 15 16 12 11 9 10 10 13 14 14 13 13 13 12 11 11 11 11 11
19 18 16 16 14 13 12 11 12 12 11 8 10 9 12 16 16 14 14 15 11 13 15 14 15 16 16 11 9 12 12 14 15 13 12 11 12 11 11 10 9 9 9
18 18 17 16 14 12 12 10 12 13 11 12 11 10 7 11 13 12 12 10 9 13 16 10 9 12 12 13 13 12 14 16 13 12 11 10 11 10 9 8 7 7 8
15 17 18 16 15 13 12 11 11 12 13 11 9 10 10 9 10 8 12 9 10 9 12 10 8 10 11 10 9 9 13 13 10 11 10 9 9 8 7 7 7 8 8
10 18 18 16 15 14 13 12 14 13 12 10 12 12 12 10 8 10 11 12 10 9 11 11 12 10 11 8 9 10 12 11 9 9 9 8 7 6 6 6 6 7 8
13 15 17 16 15 15 14 14 15 14 13 10 9 11 11 7 7 5 8 9 11 10 9 9 6 7 9 11 11 10 9 8 8 8 8 6 7 7 8 8 9 10 11
11 13 14 13 12 14 14 15 16 13 13 11 10 10 9 8 8 6 7 8 11 9 10 12 8 3 11 12 10 8 8 10 8 9 10 9 8 8 9 10 11 12 15
10 7 6 12 14 15 13 15 19 12 12 10 10 9 9 9 7 8 4 6 8 12 12 12 13 10 9 9 6 9 10 9 9 10 12 12 12 12 13 13 15 18 21
16 11 8 9 14 15 14 14 15 15 13 10 9 10 9 9 9 7 5 4 6 7 12 11 14 12 11 11 8 8 9 11 10 12 12 12 13 12 14 16 20 23 23
19 12 11 9 12 15 14 13 14 13 11 11 11 12 11 10 8 7 6 3 3 4 11 11 12 12 11 8 9 8 11 12 13 13 12 12 14 15 16 20 23 23 22
23 16 10 9 12 16 15 15 18 17 17 15 13 12 11 11 8 6 7 5 3 5 9 12 16 13 9 6 10 13 16 15 14 12 11 12 15 17 18 20 22 22 20
28 17 13 13 12 16 19 18 17 16 16 14 12 12 11 10 9 6 6 4 3 2 8 9 11 12 11 9 14 17 17 15 14 13 11 13 16 20 19 19 19 19 17
21 22 16 15 14 18 21 20 19 17 18 17 16 15 12 10 10 10 7 4 3 3 3 5 11 9 11 12 17 15 16 14 12 11 13 15 17 18 17 17 17 16 14
19 21 21 18 16 17 22 21 20 18 17 21 20 17 14 12 10 10 9 6 5 3 2 2 3 13 14 13 15 16 15 11 10 10 12 14 18 18 16 16 14 12 10
Wind_Direction
154 145 143 144 148 145 144 144 145 142 133 122 120 114 119 125 126 125 122 123 135 154 170 177 164 154 144 126 115 109 103 93 87 76 69 71 78 79 85 87 90 91 92
153 147 148 146 144 146 149 141 136 133 115 104 102 105 106 106 104 108 111 112 115 124 139 153 168 163 152 138 125 112 106 99 85 77 73 79 83 87 87 90 93 92 95
155 150 150 145 143 146 148 143 129 119 114 112 105 102 103 100 104 109 107 110 113 117 123 139 148 154 147 139 126 118 103 89 85 80 79 78 83 89 90 92 93 93 94
157 153 152 151 145 139 142 137 129 124 123 119 120 121 121 107 107 108 109 105 106 111 120 127 137 138 136 136 125 121 98 88 87 83 90 87 91 92 91 92 93 89 90
155 155 155 157 151 143 137 134 132 134 132 131 127 122 120 128 121 114 109 111 112 113 116 121 135 137 132 132 128 115 103 92 90 91 91 87 88 88 90 91 93 92 91
157 158 156 153 149 145 139 138 139 142 138 128 125 132 132 126 122 114 109 105 104 109 122 130 140 138 133 128 121 119 110 101 96 91 86 86 82 84 84 88 91 91 89
155 151 149 149 148 141 137 140 139 135 132 130 124 129 128 131 126 118 111 103 97 107 122 131 136 137 135 128 122 122 118 104 93 90 82 84 81 83 82 86 88 86 86
155 150 149 148 147 141 142 143 134 129 130 125 120 116 121 124 126 119 111 97 93 106 123 128 137 136 133 134 136 127 130 114 98 93 90 83 78 84 84 85 83 82 80
158 154 151 152 146 147 142 143 133 126 124 120 102 101 118 119 123 121 112 99 92 110 129 126 130 136 139 136 131 122 132 114 106 95 88 82 81 87 81 83 82 80 79
160 159 156 153 149 153 147 141 131 125 124 113 98 93 117 121 123 120 107 98 95 101 114 120 125 135 141 139 126 129 113 107 96 91 88 83 85 87 85 85 83 82 81
162 163 159 157 157 158 146 139 135 132 123 110 91 94 118 122 123 117 111 107 100 101 109 118 121 128 131 133 126 119 113 106 98 95 94 92 90 92 87 83 80 84 87
164 163 163 163 161 156 147 145 139 134 121 114 95 106 122 126 119 115 114 115 109 105 107 113 119 126 127 124 140 116 108 109 102 95 92 92 92 88 86 89 87 86 86
165 168 168 168 166 158 153 152 146 141 130 116 109 103 124 127 123 119 110 117 116 115 107 106 116 116 115 115 105 104 108 107 100 95 95 97 95 92 90 89 88 87 84
170 174 176 175 172 166 163 161 154 145 142 138 124 111 118 124 122 123 119 114 110 119 110 111 116 108 100 120 108 101 106 100 93 94 94 93 94 92 91 91 92 92 88
180 181 183 186 178 180 178 168 159 150 140 142 128 116 136 136 132 139 130 133 118 122 124 122 113 114 103 101 100 103 108 97 97 95 88 86 86 85 84 84 86 85 80
190 195 192 192 188 187 188 173 165 159 153 153 132 104 131 136 148 150 147 147 146 147 157 155 131 109 102 117 98 103 96 93 93 101 102 98 90 86 83 80 76 73 73
169 186 194 197 200 193 197 174 167 169 156 152 130 120 121 124 142 145 154 156 146 142 165 150 130 135 129 118 115 107 96 94 87 97 93 88 90 89 83 80 77 72 74
170 171 195 205 196 198 201 171 171 177 168 154 141 123 129 140 134 128 154 151 155 149 149 159 151 118 135 138 106 99 112 101 90 90 94 89 93 91 92 89 83 86 86
174 187 183 186 193 197 192 191 178 183 171 155 143 138 148 129 123 153 156 152 160 164 162 150 144 132 130 142 126 123 131 114 106 90 98 94 96 104 104 96 95 93 94
213 207 209 191 193 194 191 205 192 191 177 164 158 154 154 155 157 155 155 169 145 164 151 160 154 156 159 142 140 149 143 129 117 107 113 103 100 106 106 105 105 106 108
227 230 246 232 210 206 201 196 195 198 187 170 166 174 172 159 153 149 122 194 183 142 160 159 180 177 179 161 163 155 153 134 122 122 115 111 108 107 110 109 111 111 107
227 230 238 253 233 230 208 204 205 197 185 183 192 186 179 163 147 144 136 90 120 153 170 148 161 170 171 152 161 143 126 126 130 128 126 124 121 118 119 118 117 112 108
219 215 228 269 243 230 225 213 201 199 193 194 200 183 172 163 153 156 147 131 118 163 154 151 165 173 168 150 146 134 123 119 120 127 133 131 131 129 128 124 118 115 115
222 209 220 247 254 230 222 219 207 205 203 189 190 191 182 173 173 180 173 153 170 160 190 175 172 178 183 197 162 142 133 125 115 122 132 130 131 129 129 126 120 119 121
217 222 219 232 247 233 223 222 220 214 208 201 203 199 204 198 184 181 188 169 163 171 194 214 217 210 199 177 174 154 146 136 129 129 131 131 138 137 137 130 125 131 130
223 216 219 224 235 236 229 227 227 219 210 207 213 202 206 212 205 188 179 181 204 190 150 160 204 198 200 190 181 167 163 156 156 151 144 139 145 145 147 143 145 149 142
Height
3172 3175 3178 3180 3183 3185 3187 3189 3191 3193 3194 3194 3194 3194 3194 3194 3194 3194 3194 3194 3195 3196 3197 3197 3198 3199 3200 3201 3201 3202 3202 3202 3202 3202 3201 3201 3200 3199 3198 3198 3198 3198 3197
3175 3177 3180 3182 3184 3186 3189 3190 3192 3193 3194 3194 3194 3194 3194 3195 3195 3195 3195 3195 3195 3196 3198 3198 3199 3200 3201 3203 3204 3203 3204 3204 3205 3204 3204 3204 3202 3201 3201 3201 3201 3200 3200
3178 3179 3181 3184 3186 3188 3189 3191 3193 3193 3194 3195 3195 3195 3196 3196 3196 3197 3196 3197 3196 3197 3198 3199 3200 3201 3203 3204 3205 3206 3206 3206 3207 3207 3206 3205 3204 3204 3203 3204 3203 3203 3203
3180 3181 3183 3186 3188 3190 3192 3193 3195 3195 3195 3195 3196 3197 3198 3199 3199 3198 3198 3198 3198 3198 3199 3199 3201 3202 3204 3206 3207 3207 3208 3208 3209 3209 3208 3208 3207 3206 3207 3206 3206 3206 3206
3182 3184 3186 3188 3190 3193 3194 3195 3196 3197 3197 3198 3198 3200 3200 3200 3200 3200 3200 3199 3199 3199 3200 3201 3202 3204 3206 3207 3209 3209 3210 3211 3211 3211 3210 3210 3209 3209 3208 3209 3209 3209 3209
3183 3186 3188 3191 3193 3195 3196 3197 3198 3199 3199 3200 3200 3200 3200 3200 3201 3201 3201 3201 3201 3200 3201 3202 3203 3205 3207 3209 3211 3212 3212 3213 3213 3213 3212 3213 3212 3211 3211 3211 3211 3211 3211
3185 3188 3190 3193 3195 3197 3198 3199 3200 3200 3202 3201 3201 3201 3201 3201 3202 3203 3202 3202 3202 3201 3202 3203 3204 3206 3210 3212 3213 3214 3213 3214 3214 3215 3215 3215 3215 3214 3214 3214 3214 3214 3213
3188 3190 3193 3195 3197 3199 3200 3201 3201 3202 3203 3203 3202 3202 3201 3201 3202 3203 3204 3204 3204 3203 3203 3204 3205 3209 3210 3213 3216 3217 3216 3216 3217 3217 3217 3217 3217 3217 3217 3216 3216 3216 3215
3190 3193 3195 3197 3199 3200 3202 3203 3203 3203 3205 3205 3204 3203 3202 3203 3204 3205 3205 3206 3206 3205 3206 3208 3209 3211 3213 3215 3217 3218 3219 3219 3219 3219 3219 3219 3220 3219 3219 3218 3218 3218 3218
3191 3194 3197 3199 3201 3203 3204 3205 3205 3206 3207 3207 3207 3206 3205 3205 3205 3207 3207 3209 3209 3208 3210 3211 3213 3214 3216 3217 3219 3220 3220 3220 3220 3220 3220 3220 3221 3221 3220 3220 3220 3220 3220
3191 3195 3198 3201 3202 3204 3206 3207 3207 3207 3208 3209 3209 3209 3208 3208 3209 3209 3211 3211 3211 3211 3213 3214 3216 3217 3219 3220 3221 3222 3222 3222 3222 3222 3221 3221 3222 3222 3222 3223 3222 3222 3222
3193 3196 3199 3202 3204 3206 3208 3208 3210 3210 3211 3213 3213 3211 3211 3212 3213 3214 3214 3213 3213 3214 3216 3217 3218 3220 3221 3222 3223 3224 3224 3225 3224 3223 3223 3222 3223 3224 3225 3224 3224 3224 3224
3195 3198 3201 3203 3206 3208 3209 3210 3211 3212 3213 3214 3215 3215 3214 3215 3216 3217 3218 3217 3216 3217 3219 3219 3221 3222 3223 3224 3224 3226 3226 3225 3225 3225 3225 3225 3225 3226 3226 3226 3226 3226 3227
3196 3199 3202 3204 3207 3209 3210 3212 3213 3214 3215 3216 3218 3218 3218 3218 3218 3220 3221 3221 3220 3221 3221 3222 3223 3225 3225 3227 3226 3227 3228 3228 3227 3228 3228 3228 3228 3228 3228 3228 3229 3228 3228
3198 3200 3203 3206 3208 3211 3211 3213 3215 3216 3217 3218 3219 3220 3221 3221 3221 3222 3223 3223 3224 3224 3224 3224 3224 3226 3228 3228 3228 3229 3229 3229 3229 3229 3230 3230 3230 3231 3231 3231 3231 3231 3230
3198 3201 3203 3206 3209 3211 3213 3215 3217 3218 3219 3220 3221 3221 3222 3223 3224 3224 3225 3225 3226 3226 3226 3227 3227 3227 3229 3229 3230 3230 3230 3230 3231 3231 3231 3232 3232 3232 3233 3233 3233 3233 3232
3198 3201 3204 3207 3210 3212 3214 3216 3219 3220 3221 3222 3222 3223 3224 3224 3225 3226 3227 3227 3227 3227 3228 3229 3229 3230 3231 3232 3232 3231 3232 3233 3233 3233 3233 3234 3234 3234 3234 3234 3234 3234 3234
3200 3203 3204 3207 3209 3212 3215 3217 3219 3221 3222 3223 3223 3224 3225 3226 3226 3228 3228 3229 3229 3229 3230 3230 3231 3234 3234 3234 3233 3232 3234 3234 3234 3234 3234 3235 3236 3236 3236 3236 3236 3235 3235
3201 3204 3206 3207 3208 3212 3215 3217 3220 3221 3223 3224 3224 3225 3226 3227 3227 3228 3230 3231 3231 3231 3232 3232 3233 3234 3235 3235 3234 3235 3236 3235 3236 3236 3236 3237 3237 3237 3237 3237 3237 3237 3238
3199 3203 3206 3208 3209 3211 3215 3218 3220 3221 3222 3223 3225 3226 3227 3229 3229 3229 3230 3232 3232 3232 3232 3233 3234 3236 3236 3236 3236 3237 3237 3237 3237 3238 3238 3238 3239 3239 3239 3238 3239 3240 3242
3197 3201 3204 3207 3209 3210 3214 3217 3220 3223 3224 3225 3226 3228 3228 3229 3231 3230 3231 3232 3232 3232 3233 3234 3235 3236 3238 3238 3238 3238 3238 3238 3239 3239 3240 3240 3241 3241 3241 3241 3242 3243 3244
3195 3199 3203 3206 3207 3210 3214 3217 3220 3222 3223 3226 3228 3229 3229 3230 3231 3232 3233 3233 3233 3234 3235 3235 3236 3238 3239 3239 3239 3240 3240 3242 3241 3241 3242 3242 3242 3243 3244 3244 3245 3247 3248
3191 3196 3201 3204 3207 3209 3212 3215 3218 3220 3222 3225 3227 3229 3229 3231 3232 3234 3234 3234 3235 3235 3235 3236 3238 3239 3240 3240 3241 3242 3243 3244 3244 3244 3244 3245 3245 3246 3246 3247 3248 3250 3251
3188 3194 3199 3203 3206 3208 3210 3214 3217 3221 3223 3226 3228 3230 3231 3231 3232 3234 3236 3236 3236 3236 3236 3237 3238 3240 3240 3241 3243 3244 3244 3245 3245 3246 3246 3246 3248 3249 3250 3250 3251 3253 3254
3185 3190 3196 3201 3204 3206 3209 3212 3216 3219 3222 3226 3228 3229 3230 3232 3233 3235 3236 3237 3238 3238 3237 3237 3238 3239 3241 3242 3245 3245 3246 3246 3247 3247 3248 3249 3249 3250 3252 3253 3254 3255 3256
3183 3188 3193 3198 3202 3205 3207 3211 3214 3217 3220 3223 3226 3228 3230 3232 3233 3235 3236 3237 3238 3239 3238 3238 3239 3240 3241 3243 3245 3245 3246 3247 3248 3248 3249 3250 3250 3251 3254 3255 3256 3257 3257